QPF
0.03 0.05 0.05 0.05 0.04 0.04 0.05 0.04 0.04 0.05 0.02 0.01 0.01 0.01 0.02 0.02 0.02 0.02 0.02 0.03 0.03 0.05 0.05 0.05 0.05 0.05 0.05 0.05 0.05 0.03 0.03 0.02 0.02 0.02 0.02 0.03 0.04 0.05 0.05 0.04 0.02 0.02 0.02
0.01 0.03 0.04 0.05 0.05 0.05 0.06 0.05 0.04 0.04 0.04 0.02 0.01 0.01 0.02 0.02 0.03 0.03 0.02 0.02 0.02 0.03 0.04 0.05 0.05 0.05 0.06 0.06 0.07 0.05 0.03 0.02 0.02 0.02 0.02 0.02 0.02 0.03 0.04 0.05 0.05 0.04 0.03
0.01 0.02 0.03 0.04 0.05 0.05 0.04 0.05 0.06 0.05 0.03 0.03 0.02 0.01 0.01 0.02 0.02 0.03 0.02 0.02 0.02 0.02 0.03 0.04 0.05 0.05 0.06 0.07 0.08 0.06 0.04 0.02 0.02 0.02 0.02 0.02 0.02 0.02 0.03 0.03 0.04 0.04 0.03
0.03 0.02 0.02 0.03 0.04 0.05 0.04 0.03 0.05 0.09 0.07 0.03 0.02 0.01 0.01 0.01 0.02 0.02 0.02 0.02 0.03 0.02 0.02 0.04 0.06 0.06 0.05 0.07 0.09 0.08 0.05 0.03 0.02 0.01 0.02 0.02 0.02 0.02 0.02 0.03 0.06 0.06 0.05
0.02 0.03 0.02 0.02 0.03 0.05 0.05 0.04 0.04 0.06 0.08 0.06 0.04 0.02 0.01 0.01 0.01 0.01 0.02 0.02 0.03 0.03 0.03 0.04 0.04 0.06 0.05 0.06 0.09 0.09 0.07 0.05 0.03 0.02 0.02 0.02 0.02 0.03 0.03 0.02 0.02 0.03 0.04
0.01 0.02 0.02 0.02 0.03 0.04 0.06 0.06 0.04 0.04 0.05 0.06 0.05 0.03 0.02 0.02 0.02 0.02 0.01 0.01 0.02 0.03 0.04 0.04 0.04 0.05 0.06 0.05 0.07 0.09 0.08 0.07 0.05 0.02 0.02 0.01 0.01 0.02 0.03 0.03 0.02 0.01 0.02
0.02 0.02 0.02 0.03 0.04 0.04 0.05 0.06 0.05 0.04 0.04 0.05 0.06 0.05 0.03 0.02 0.03 0.03 0.03 0.02 0.02 0.03 0.03 0.04 0.04 0.05 0.05 0.05 0.05 0.08 0.08 0.06 0.06 0.04 0.02 0.01 0.01 0.02 0.02 0.03 0.03 0.02 0.01
0.05 0.04 0.02 0.02 0.04 0.04 0.05 0.05 0.04 0.04 0.04 0.06 0.07 0.06 0.04 0.03 0.02 0.02 0.03 0.04 0.03 0.03 0.03 0.04 0.05 0.06 0.06 0.05 0.05 0.06 0.07 0.06 0.06 0.07 0.05 0.02 0.02 0.02 0.03 0.03 0.04 0.03 0.03
0.09 0.09 0.06 0.04 0.04 0.05 0.05 0.05 0.04 0.04 0.04 0.04 0.06 0.08 0.06 0.03 0.02 0.02 0.03 0.04 0.03 0.03 0.04 0.05 0.06 0.07 0.06 0.06 0.05 0.05 0.06 0.07 0.06 0.07 0.07 0.05 0.03 0.03 0.03 0.03 0.04 0.04 0.03
0.09 0.11 0.10 0.08 0.06 0.06 0.05 0.05 0.05 0.05 0.04 0.04 0.05 0.06 0.06 0.04 0.02 0.02 0.02 0.03 0.03 0.03 0.03 0.05 0.07 0.10 0.08 0.07 0.06 0.05 0.05 0.06 0.07 0.07 0.07 0.06 0.04 0.03 0.03 0.03 0.04 0.04 0.04
0.07 0.10 0.11 0.10 0.09 0.07 0.06 0.05 0.05 0.05 0.05 0.04 0.04 0.04 0.05 0.04 0.03 0.02 0.02 0.03 0.04 0.03 0.02 0.03 0.05 0.09 0.11 0.08 0.08 0.06 0.06 0.05 0.06 0.07 0.08 0.08 0.06 0.04 0.04 0.03 0.03 0.04 0.04
0.08 0.10 0.11 0.10 0.11 0.10 0.08 0.06 0.05 0.05 0.05 0.05 0.05 0.04 0.04 0.04 0.03 0.02 0.02 0.02 0.03 0.03 0.02 0.02 0.03 0.06 0.11 0.08 0.08 0.08 0.07 0.06 0.06 0.06 0.07 0.08 0.09 0.07 0.04 0.04 0.04 0.04 0.04
0.06 0.09 0.13 0.13 0.12 0.10 0.09 0.07 0.06 0.06 0.06 0.06 0.06 0.05 0.04 0.03 0.02 0.02 0.02 0.03 0.02 0.02 0.02 0.02 0.03 0.05 0.08 0.09 0.06 0.07 0.07 0.06 0.06 0.07 0.07 0.07 0.07 0.07 0.06 0.05 0.04 0.04 0.04
0.04 0.04 0.08 0.11 0.13 0.14 0.12 0.10 0.09 0.06 0.06 0.05 0.06 0.06 0.06 0.04 0.03 0.03 0.03 0.03 0.04 0.03 0.03 0.03 0.04 0.05 0.07 0.09 0.07 0.06 0.05 0.05 0.05 0.05 0.06 0.06 0.05 0.05 0.05 0.05 0.05 0.05 0.04
0.02 0.02 0.04 0.07 0.09 0.12 0.13 0.13 0.11 0.09 0.07 0.06 0.06 0.07 0.08 0.07 0.05 0.04 0.03 0.03 0.05 0.05 0.04 0.03 0.04 0.04 0.05 0.08 0.08 0.05 0.03 0.03 0.03 0.03 0.04 0.05 0.05 0.04 0.03 0.04 0.04 0.04 0.04
0.02 0.01 0.02 0.05 0.08 0.09 0.10 0.11 0.10 0.08 0.08 0.06 0.05 0.05 0.06 0.07 0.07 0.06 0.05 0.04 0.04 0.06 0.04 0.03 0.02 0.02 0.03 0.05 0.09 0.06 0.03 0.03 0.02 0.02 0.02 0.03 0.04 0.04 0.04 0.04 0.04 0.03 0.04
0.02 0.01 0.02 0.03 0.05 0.08 0.08 0.08 0.07 0.06 0.06 0.05 0.05 0.04 0.04 0.04 0.05 0.06 0.06 0.05 0.05 0.06 0.06 0.04 0.02 0.02 0.03 0.04 0.07 0.08 0.05 0.03 0.02 0.02 0.02 0.02 0.03 0.03 0.03 0.04 0.04 0.04 0.03
0.03 0.02 0.02 0.03 0.04 0.07 0.08 0.08 0.07 0.06 0.06 0.05 0.04 0.04 0.05 0.05 0.05 0.06 0.06 0.06 0.06 0.05 0.05 0.04 0.03 0.02 0.03 0.04 0.06 0.08 0.07 0.05 0.03 0.02 0.02 0.02 0.02 0.03 0.03 0.03 0.04 0.04 0.04
0.03 0.02 0.02 0.03 0.04 0.05 0.07 0.08 0.07 0.06 0.06 0.06 0.05 0.05 0.04 0.05 0.05 0.05 0.05 0.05 0.05 0.05 0.04 0.04 0.03 0.02 0.02 0.03 0.05 0.07 0.07 0.06 0.05 0.03 0.02 0.03 0.02 0.03 0.03 0.03 0.04 0.04 0.04
0.04 0.04 0.03 0.03 0.04 0.04 0.05 0.06 0.07 0.06 0.05 0.05 0.04 0.04 0.04 0.04 0.04 0.03 0.04 0.04 0.04 0.04 0.05 0.05 0.04 0.03 0.02 0.02 0.04 0.06 0.08 0.07 0.06 0.05 0.03 0.03 0.04 0.04 0.04 0.04 0.04 0.04 0.04
0.04 0.05 0.05 0.04 0.04 0.04 0.05 0.06 0.06 0.06 0.05 0.05 0.05 0.03 0.02 0.03 0.03 0.03 0.03 0.03 0.03 0.04 0.05 0.05 0.05 0.04 0.02 0.02 0.03 0.05 0.07 0.08 0.06 0.05 0.04 0.03 0.04 0.05 0.05 0.05 0.04 0.04 0.05
0.04 0.05 0.05 0.06 0.05 0.04 0.04 0.05 0.06 0.05 0.05 0.05 0.04 0.04 0.03 0.02 0.02 0.03 0.03 0.03 0.03 0.04 0.04 0.05 0.05 0.05 0.03 0.03 0.03 0.05 0.06 0.07 0.08 0.05 0.04 0.03 0.03 0.04 0.05 0.05 0.05 0.05 0.05
0.03 0.04 0.04 0.05 0.05 0.04 0.04 0.04 0.04 0.05 0.05 0.05 0.05 0.04 0.04 0.03 0.02 0.02 0.03 0.03 0.03 0.03 0.03 0.04 0.04 0.04 0.03 0.03 0.03 0.05 0.07 0.06 0.07 0.05 0.04 0.04 0.03 0.03 0.03 0.03 0.04 0.05 0.05
0.03 0.03 0.04 0.04 0.05 0.03 0.03 0.04 0.04 0.04 0.04 0.04 0.04 0.04 0.04 0.04 0.04 0.03 0.03 0.04 0.04 0.03 0.02 0.02 0.03 0.03 0.03 0.03 0.03 0.05 0.07 0.08 0.07 0.06 0.04 0.04 0.03 0.03 0.02 0.02 0.03 0.03 0.04
0.02 0.02 0.03 0.03 0.03 0.04 0.03 0.03 0.04 0.04 0.04 0.04 0.04 0.04 0.04 0.04 0.04 0.05 0.04 0.04 0.03 0.03 0.03 0.03 0.03 0.03 0.04 0.04 0.04 0.05 0.07 0.09 0.09 0.08 0.07 0.04 0.03 0.03 0.02 0.03 0.03 0.03 0.03
0.02 0.02 0.02 0.02 0.02 0.03 0.03 0.03 0.04 0.04 0.05 0.04 0.03 0.03 0.04 0.04 0.04 0.05 0.06 0.06 0.05 0.03 0.03 0.03 0.03 0.03 0.03 0.03 0.04 0.05 0.06 0.07 0.08 0.09 0.09 0.07 0.04 0.03 0.04 0.03 0.02 0.02 0.02
MSLP
1016.06 1015.73 1015.33 1014.86 1014.35 1013.81 1013.31 1012.89 1012.60 1012.47 1012.51 1012.71 1013.03 1013.45 1013.92 1014.41 1014.90 1015.39 1015.87 1016.36 1016.86 1017.36 1017.86 1018.35 1018.81 1019.22 1019.57 1019.87 1020.13 1020.37 1020.61 1020.85 1021.12 1021.41 1021.71 1022.02 1022.32 1022.59 1022.83 1023.02 1023.18 1023.30 1023.40
1015.74 1015.45 1015.07 1014.60 1014.05 1013.48 1012.92 1012.44 1012.09 1011.92 1011.93 1012.12 1012.47 1012.93 1013.45 1014.01 1014.56 1015.10 1015.63 1016.15 1016.66 1017.18 1017.70 1018.22 1018.71 1019.17 1019.59 1019.96 1020.29 1020.59 1020.87 1021.15 1021.43 1021.72 1022.01 1022.30 1022.58 1022.84 1023.08 1023.29 1023.47 1023.63 1023.76
1015.26 1015.04 1014.71 1014.26 1013.71 1013.10 1012.50 1011.96 1011.56 1011.35 1011.35 1011.55 1011.93 1012.45 1013.04 1013.67 1014.29 1014.88 1015.43 1015.96 1016.47 1016.98 1017.49 1018.01 1018.53 1019.03 1019.51 1019.95 1020.36 1020.73 1021.08 1021.39 1021.69 1021.98 1022.26 1022.53 1022.80 1023.05 1023.29 1023.51 1023.72 1023.90 1024.07
1014.58 1014.45 1014.19 1013.79 1013.25 1012.62 1011.98 1011.39 1010.95 1010.71 1010.71 1010.94 1011.37 1011.96 1012.64 1013.36 1014.05 1014.70 1015.28 1015.81 1016.31 1016.79 1017.28 1017.78 1018.30 1018.82 1019.35 1019.86 1020.34 1020.78 1021.18 1021.55 1021.87 1022.17 1022.44 1022.70 1022.95 1023.20 1023.44 1023.67 1023.90 1024.11 1024.31
1013.68 1013.66 1013.47 1013.12 1012.60 1011.97 1011.30 1010.68 1010.20 1009.94 1009.95 1010.21 1010.72 1011.40 1012.19 1013.01 1013.80 1014.52 1015.16 1015.71 1016.19 1016.65 1017.09 1017.56 1018.06 1018.59 1019.14 1019.69 1020.23 1020.73 1021.19 1021.59 1021.95 1022.26 1022.53 1022.79 1023.03 1023.27 1023.51 1023.76 1024.00 1024.23 1024.46
1012.56 1012.61 1012.50 1012.20 1011.71 1011.09 1010.40 1009.76 1009.26 1008.99 1009.01 1009.32 1009.90 1010.69 1011.60 1012.56 1013.48 1014.30 1015.02 1015.61 1016.11 1016.55 1016.96 1017.39 1017.86 1018.37 1018.92 1019.49 1020.05 1020.59 1021.09 1021.53 1021.91 1022.23 1022.52 1022.77 1023.02 1023.26 1023.51 1023.76 1024.02 1024.27 1024.50
1011.21 1011.31 1011.26 1011.01 1010.56 1009.95 1009.27 1008.62 1008.11 1007.84 1007.87 1008.23 1008.89 1009.79 1010.84 1011.94 1013.01 1013.97 1014.80 1015.47 1016.02 1016.47 1016.88 1017.29 1017.72 1018.20 1018.73 1019.28 1019.85 1020.39 1020.90 1021.36 1021.76 1022.10 1022.39 1022.66 1022.92 1023.17 1023.43 1023.70 1023.96 1024.22 1024.46
1009.63 1009.76 1009.75 1009.55 1009.15 1008.58 1007.93 1007.29 1006.79 1006.52 1006.58 1006.97 1007.70 1008.69 1009.87 1011.12 1012.35 1013.48 1014.45 1015.25 1015.88 1016.39 1016.83 1017.23 1017.63 1018.08 1018.56 1019.08 1019.62 1020.15 1020.66 1021.11 1021.52 1021.87 1022.18 1022.46 1022.73 1023.00 1023.28 1023.56 1023.84 1024.11 1024.35
1007.82 1007.94 1007.97 1007.84 1007.51 1007.02 1006.43 1005.84 1005.36 1005.12 1005.19 1005.61 1006.38 1007.44 1008.72 1010.10 1011.49 1012.78 1013.92 1014.87 1015.64 1016.24 1016.73 1017.16 1017.56 1017.98 1018.42 1018.90 1019.40 1019.89 1020.37 1020.81 1021.21 1021.57 1021.89 1022.20 1022.49 1022.78 1023.08 1023.38 1023.67 1023.95 1024.20
1005.81 1005.91 1005.98 1005.92 1005.71 1005.33 1004.85 1004.35 1003.94 1003.73 1003.82 1004.25 1005.03 1006.13 1007.47 1008.95 1010.46 1011.90 1013.20 1014.32 1015.23 1015.96 1016.54 1017.03 1017.45 1017.86 1018.28 1018.71 1019.16 1019.62 1020.06 1020.48 1020.87 1021.23 1021.57 1021.89 1022.20 1022.52 1022.84 1023.16 1023.47 1023.75 1024.01
1003.63 1003.72 1003.83 1003.89 1003.82 1003.61 1003.28 1002.92 1002.61 1002.46 1002.57 1003.00 1003.77 1004.86 1006.21 1007.73 1009.32 1010.88 1012.32 1013.58 1014.64 1015.51 1016.21 1016.77 1017.25 1017.67 1018.09 1018.50 1018.92 1019.34 1019.75 1020.15 1020.53 1020.89 1021.24 1021.57 1021.91 1022.24 1022.58 1022.92 1023.24 1023.54 1023.81
1001.36 1001.43 1001.61 1001.80 1001.91 1001.90 1001.79 1001.60 1001.43 1001.38 1001.53 1001.95 1002.69 1003.74 1005.05 1006.56 1008.17 1009.78 1011.31 1012.69 1013.89 1014.88 1015.70 1016.36 1016.91 1017.39 1017.82 1018.23 1018.64 1019.05 1019.45 1019.84 1020.21 1020.58 1020.93 1021.28 1021.62 1021.97 1022.32 1022.67 1023.00 1023.31 1023.59
999.09 999.16 999.41 999.73 1000.04 1000.27 1000.39 1000.42 1000.43 1000.50 1000.71 1001.14 1001.84 1002.83 1004.07 1005.52 1007.09 1008.70 1010.27 1011.72 1013.00 1014.11 1015.04 1015.80 1016.44 1016.98 1017.46 1017.91 1018.34 1018.75 1019.16 1019.56 1019.94 1020.31 1020.67 1021.02 1021.37 1021.72 1022.08 1022.42 1022.75 1023.06 1023.35
996.96 997.00 997.31 997.77 998.27 998.73 999.10 999.37 999.58 999.80 1000.10 1000.57 1001.24 1002.16 1003.32 1004.67 1006.17 1007.73 1009.28 1010.74 1012.08 1013.26 1014.27 1015.13 1015.86 1016.48 1017.04 1017.54 1018.01 1018.46 1018.90 1019.32 1019.71 1020.10 1020.46 1020.82 1021.16 1021.51 1021.85 1022.18 1022.50 1022.80 1023.08
995.10 995.10 995.43 995.98 996.64 997.29 997.89 998.40 998.83 999.22 999.65 1000.18 1000.86 1001.74 1002.81 1004.07 1005.47 1006.94 1008.42 1009.86 1011.19 1012.40 1013.47 1014.40 1015.22 1015.93 1016.56 1017.14 1017.68 1018.18 1018.66 1019.11 1019.53 1019.93 1020.30 1020.65 1020.99 1021.31 1021.63 1021.94 1022.23 1022.51 1022.77
993.63 993.55 993.86 994.44 995.18 995.98 996.76 997.48 998.11 998.70 999.27 999.90 1000.63 1001.51 1002.53 1003.71 1005.00 1006.38 1007.77 1009.13 1010.43 1011.63 1012.72 1013.69 1014.57 1015.35 1016.07 1016.72 1017.33 1017.90 1018.42 1018.91 1019.36 1019.77 1020.14 1020.48 1020.80 1021.11 1021.40 1021.68 1021.94 1022.19 1022.43
992.68 992.47 992.69 993.22 993.96 994.82 995.71 996.58 997.39 998.16 998.90 999.67 1000.49 1001.40 1002.43 1003.55 1004.77 1006.04 1007.33 1008.60 1009.83 1010.98 1012.05 1013.04 1013.95 1014.79 1015.57 1016.29 1016.96 1017.58 1018.15 1018.67 1019.13 1019.55 1019.92 1020.26 1020.57 1020.85 1021.12 1021.37 1021.61 1021.83 1022.04
992.28 991.92 991.97 992.37 993.03 993.86 994.78 995.73 996.67 997.59 998.50 999.42 1000.36 1001.36 1002.41 1003.53 1004.69 1005.88 1007.07 1008.24 1009.38 1010.46 1011.49 1012.46 1013.38 1014.24 1015.05 1015.81 1016.53 1017.18 1017.78 1018.32 1018.79 1019.21 1019.58 1019.91 1020.21 1020.49 1020.74 1020.98 1021.21 1021.41 1021.59
992.46 991.90 991.75 991.95 992.45 993.16 994.02 994.98 995.99 997.02 998.07 999.13 1000.20 1001.29 1002.41 1003.54 1004.67 1005.80 1006.90 1007.98 1009.02 1010.03 1010.99 1011.92 1012.82 1013.68 1014.50 1015.28 1016.00 1016.67 1017.27 1017.81 1018.28 1018.70 1019.06 1019.40 1019.70 1019.99 1020.25 1020.50 1020.73 1020.94 1021.11
993.15 992.40 992.03 991.99 992.26 992.79 993.52 994.41 995.41 996.49 997.63 998.80 999.98 1001.17 1002.34 1003.50 1004.62 1005.70 1006.73 1007.72 1008.68 1009.60 1010.50 1011.38 1012.24 1013.08 1013.89 1014.65 1015.37 1016.02 1016.60 1017.12 1017.58 1017.98 1018.35 1018.69 1019.02 1019.33 1019.64 1019.93 1020.19 1020.42 1020.61
994.28 993.37 992.78 992.50 992.52 992.81 993.35 994.10 995.02 996.08 997.24 998.46 999.71 1000.95 1002.17 1003.34 1004.44 1005.48 1006.46 1007.38 1008.26 1009.11 1009.95 1010.78 1011.61 1012.41 1013.19 1013.94 1014.62 1015.24 1015.79 1016.28 1016.71 1017.10 1017.48 1017.84 1018.21 1018.58 1018.95 1019.30 1019.63 1019.92 1020.14
995.74 994.72 993.94 993.43 993.20 993.25 993.56 994.13 994.90 995.87 996.97 998.17 999.41 1000.66 1001.87 1003.02 1004.10 1005.10 1006.02 1006.89 1007.71 1008.52 1009.32 1010.11 1010.91 1011.70 1012.45 1013.17 1013.82 1014.40 1014.91 1015.37 1015.77 1016.16 1016.54 1016.93 1017.35 1017.79 1018.25 1018.69 1019.11 1019.47 1019.76
997.41 996.33 995.42 994.73 994.28 994.09 994.17 994.51 995.09 995.89 996.87 997.97 999.13 1000.31 1001.47 1002.57 1003.60 1004.55 1005.42 1006.25 1007.04 1007.83 1008.62 1009.41 1010.20 1010.98 1011.73 1012.43 1013.06 1013.61 1014.09 1014.51 1014.89 1015.27 1015.67 1016.10 1016.58 1017.10 1017.65 1018.20 1018.71 1019.16 1019.52
999.14 998.07 997.10 996.29 995.67 995.28 995.13 995.24 995.60 996.20 996.98 997.91 998.93 999.99 1001.04 1002.05 1003.00 1003.89 1004.73 1005.53 1006.33 1007.12 1007.92 1008.74 1009.56 1010.37 1011.13 1011.83 1012.45 1012.99 1013.45 1013.86 1014.24 1014.62 1015.03 1015.51 1016.04 1016.64 1017.27 1017.91 1018.52 1019.05 1019.48
1000.82 999.81 998.85 997.98 997.25 996.70 996.37 996.26 996.40 996.77 997.34 998.06 998.89 999.77 1000.68 1001.57 1002.44 1003.27 1004.08 1004.87 1005.68 1006.50 1007.36 1008.23 1009.11 1009.96 1010.76 1011.49 1012.13 1012.68 1013.14 1013.55 1013.93 1014.32 1014.76 1015.26 1015.85 1016.50 1017.20 1017.91 1018.58 1019.17 1019.66
1002.37 1001.46 1000.55 999.68 998.90 998.25 997.78 997.50 997.44 997.59 997.93 998.44 999.07 999.77 1000.52 1001.29 1002.06 1002.83 1003.61 1004.41 1005.25 1006.12 1007.04 1007.98 1008.92 1009.84 1010.70 1011.48 1012.16 1012.73 1013.22 1013.64 1014.04 1014.45 1014.90 1015.43 1016.04 1016.72 1017.45 1018.19 1018.90 1019.53 1020.04
Thickness
5584 5586 5589 5591 5593 5596 5599 5601 5604 5607 5610 5613 5616 5618 5620 5621 5624 5626 5627 5628 5630 5632 5634 5636 5638 5640 5641 5643 5644 5645 5645 5646 5646 5647 5647 5648 5648 5649 5650 5650 5650 5651 5651
5573 5575 5578 5581 5583 5585 5588 5591 5594 5597 5600 5604 5606 5609 5611 5613 5615 5617 5619 5620 5622 5624 5626 5629 5631 5633 5635 5637 5638 5639 5640 5640 5641 5641 5642 5643 5643 5644 5645 5645 5646 5646 5646
5561 5563 5567 5569 5572 5574 5578 5581 5584 5587 5590 5593 5596 5599 5601 5604 5606 5608 5610 5612 5614 5616 5619 5621 5624 5626 5628 5629 5631 5632 5633 5634 5635 5636 5636 5637 5638 5639 5640 5640 5641 5641 5641
5549 5552 5555 5558 5560 5563 5567 5570 5573 5576 5580 5583 5586 5589 5591 5594 5597 5599 5602 5604 5606 5609 5611 5613 5616 5618 5620 5622 5624 5625 5627 5628 5629 5630 5630 5632 5632 5633 5634 5635 5635 5636 5636
5536 5539 5542 5545 5548 5551 5555 5558 5561 5564 5568 5572 5575 5578 5582 5585 5588 5591 5593 5595 5597 5599 5603 5605 5607 5609 5611 5614 5616 5618 5620 5621 5622 5623 5624 5625 5627 5627 5628 5629 5630 5631 5631
5525 5527 5530 5533 5536 5539 5543 5546 5549 5553 5556 5560 5564 5568 5572 5575 5578 5581 5584 5586 5588 5591 5594 5596 5599 5601 5603 5605 5607 5610 5612 5613 5615 5616 5618 5619 5621 5622 5623 5624 5624 5625 5625
5513 5514 5517 5520 5523 5527 5530 5533 5536 5541 5545 5547 5552 5557 5562 5566 5569 5571 5574 5577 5579 5581 5584 5587 5590 5592 5594 5596 5598 5601 5603 5606 5608 5609 5611 5613 5614 5615 5617 5617 5618 5619 5619
5500 5502 5504 5507 5511 5514 5518 5521 5524 5528 5532 5533 5538 5543 5552 5557 5559 5561 5563 5566 5569 5572 5575 5577 5580 5583 5585 5587 5589 5592 5595 5597 5600 5602 5603 5605 5608 5609 5610 5611 5612 5613 5614
5487 5488 5490 5494 5498 5502 5506 5509 5511 5514 5518 5521 5523 5527 5536 5544 5545 5551 5553 5555 5558 5561 5564 5567 5570 5573 5575 5577 5580 5582 5585 5587 5590 5593 5595 5598 5600 5602 5604 5605 5606 5606 5608
5474 5475 5477 5479 5484 5488 5492 5496 5499 5501 5505 5508 5511 5513 5518 5523 5529 5537 5543 5545 5548 5551 5553 5556 5559 5562 5565 5567 5570 5573 5575 5577 5580 5584 5587 5590 5592 5595 5596 5597 5599 5600 5601
5461 5462 5464 5466 5470 5474 5478 5482 5485 5488 5492 5495 5498 5501 5505 5509 5515 5522 5531 5535 5537 5540 5542 5545 5548 5552 5554 5557 5560 5563 5565 5567 5570 5574 5578 5581 5584 5587 5588 5590 5591 5592 5593
5447 5448 5450 5452 5456 5460 5464 5468 5471 5474 5478 5482 5485 5488 5492 5497 5502 5508 5515 5522 5526 5530 5532 5535 5538 5541 5544 5546 5549 5552 5554 5556 5559 5563 5568 5571 5575 5578 5580 5581 5583 5584 5585
5434 5435 5436 5439 5442 5446 5450 5453 5457 5460 5464 5468 5472 5475 5479 5483 5488 5492 5499 5506 5513 5519 5522 5524 5527 5530 5532 5535 5538 5540 5543 5546 5549 5554 5559 5561 5564 5568 5570 5572 5574 5575 5576
5419 5420 5421 5424 5428 5431 5435 5439 5442 5446 5450 5454 5457 5461 5465 5470 5474 5479 5484 5489 5497 5506 5511 5515 5516 5518 5521 5523 5527 5529 5533 5536 5540 5544 5547 5550 5553 5557 5560 5562 5564 5566 5568
5404 5406 5408 5410 5413 5417 5420 5425 5429 5432 5436 5439 5443 5446 5451 5456 5460 5465 5469 5474 5481 5491 5501 5505 5505 5507 5509 5511 5514 5518 5522 5526 5530 5533 5536 5539 5543 5547 5549 5551 5554 5556 5558
5390 5392 5395 5397 5399 5403 5406 5409 5415 5418 5421 5425 5428 5432 5436 5442 5447 5451 5455 5460 5466 5473 5483 5492 5492 5494 5495 5499 5503 5506 5511 5515 5518 5521 5525 5528 5532 5536 5538 5541 5543 5545 5548
5376 5379 5381 5383 5386 5389 5392 5395 5400 5404 5407 5411 5414 5418 5423 5427 5432 5437 5441 5447 5452 5458 5465 5474 5477 5480 5483 5487 5491 5495 5500 5504 5507 5511 5514 5518 5522 5525 5528 5530 5532 5535 5537
5363 5365 5367 5370 5373 5375 5378 5381 5385 5390 5394 5397 5401 5405 5409 5413 5418 5422 5427 5433 5438 5444 5450 5458 5463 5466 5471 5475 5480 5484 5489 5493 5497 5501 5504 5507 5511 5514 5517 5519 5521 5524 5526
5350 5352 5354 5357 5360 5362 5365 5368 5371 5376 5380 5384 5388 5392 5396 5400 5405 5409 5414 5419 5424 5430 5436 5442 5449 5454 5458 5463 5467 5472 5477 5482 5486 5490 5493 5496 5500 5502 5506 5508 5511 5513 5515
5337 5339 5341 5344 5347 5349 5353 5355 5358 5363 5368 5372 5376 5380 5384 5388 5393 5396 5401 5406 5411 5416 5422 5429 5436 5442 5446 5450 5454 5459 5464 5470 5474 5477 5481 5485 5488 5491 5495 5498 5502 5503 5505
5324 5326 5329 5332 5335 5338 5341 5343 5347 5351 5356 5360 5364 5368 5372 5376 5380 5384 5389 5394 5397 5403 5408 5416 5423 5429 5434 5437 5442 5447 5452 5457 5462 5465 5469 5474 5477 5481 5483 5487 5490 5493 5495
5311 5314 5317 5319 5323 5326 5328 5331 5335 5339 5344 5348 5352 5357 5361 5365 5368 5372 5377 5381 5386 5390 5396 5403 5410 5417 5423 5426 5429 5433 5438 5444 5452 5456 5457 5462 5465 5469 5473 5477 5480 5482 5484
5298 5300 5303 5307 5311 5314 5316 5319 5322 5325 5331 5335 5339 5344 5349 5354 5356 5361 5365 5369 5374 5379 5384 5390 5397 5404 5409 5415 5418 5422 5425 5430 5438 5442 5443 5451 5454 5459 5462 5465 5468 5470 5473
5285 5288 5291 5295 5298 5302 5304 5306 5309 5313 5318 5322 5326 5332 5337 5341 5344 5348 5353 5358 5362 5368 5373 5378 5386 5392 5396 5400 5405 5409 5412 5416 5422 5427 5432 5438 5444 5447 5449 5452 5455 5457 5460
5273 5276 5279 5283 5286 5290 5291 5294 5296 5301 5306 5311 5314 5319 5324 5329 5333 5336 5342 5347 5352 5357 5360 5366 5372 5377 5383 5387 5391 5395 5400 5404 5411 5416 5419 5425 5431 5433 5436 5440 5442 5444 5447
5261 5264 5267 5270 5273 5277 5280 5282 5284 5288 5295 5300 5304 5308 5312 5317 5320 5324 5329 5335 5341 5346 5349 5355 5360 5366 5370 5375 5379 5384 5389 5392 5398 5403 5408 5410 5417 5418 5422 5428 5429 5431 5433